CYBG

CFB Bagotville

ICAO Code CYBG
IATA Code YBG
Name CFB Bagotville
Location Bagotville, Quebec, CA
Elevation 522 Feet / 159.1 Meters
Latitude 48.33055556
Longitude -70.99638889
METAR CYBG 130200Z 00000KT 25SM FEW055TCU BKN100 17/16 A2987 RMK TCU2AC4 DENSITY ALT 1186FT TCU SE MOV NE SLP116
Extra information Display Charts
Runway Length Width Surface Elevation
11 10000 ft 150 ft ASP/CON 519 ft
18 6000 ft 150 ft ASP 520 ft
29 10000 ft 150 ft ASP/CON 511 ft
36 6000 ft 150 ft ASP 522 ft

Mandatory Routes

CFB Bagotville

Direction Destination Level Remark Type Route
DEP TO CYQB H&L RNAV IGSAS TADES KAROT ARR
DEP TO CYUL H&L RNAV IGSAS OBTEK DEBUS OMBRE ARR